Theta_e
324 318 312 313 314 314 316 317 318 319 318 320 319 317 317 319 320 321 322 324 325 326 326 328 328 328 329 329 330 330 330 330 331 331 331 333 334 334 334 333 331 329 325 320 321 322 323 322 322 326 332 334 335 335 332 327 321 317 314 312 310 308 308 310 311 319 329 332 334 335 335 329 320 323 325 324 322 318 315 313 313 312 312 311 311
322 317 312 312 313 314 316 318 318 318 319 320 319 317 317 319 320 320 322 323 325 326 326 327 328 328 329 330 330 330 330 330 331 331 332 334 334 335 334 334 333 330 325 319 320 323 322 319 316 319 326 330 330 329 325 320 317 315 315 312 309 308 308 310 314 324 332 334 335 335 331 324 317 318 318 317 316 314 313 312 312 311 311 311 311
320 316 312 312 313 314 315 318 318 318 319 319 319 317 317 319 319 320 321 323 325 325 326 326 327 328 329 330 330 330 330 330 330 330 332 333 333 333 332 331 331 328 322 317 320 322 318 314 311 313 318 324 325 322 318 316 316 316 315 312 310 310 311 315 322 329 334 334 334 331 325 320 317 316 314 313 311 311 311 310 310 310 311 310 311
319 313 312 312 313 315 315 318 319 318 319 319 319 318 318 319 319 320 321 323 324 324 325 325 327 329 329 329 330 330 330 330 330 329 329 329 330 330 329 328 326 323 319 319 320 318 313 310 308 309 312 316 318 315 314 316 317 316 314 313 312 311 313 318 325 329 329 329 328 325 322 319 317 315 314 312 311 310 310 310 310 310 310 310 310
317 312 312 312 313 315 315 318 319 318 319 319 319 318 318 319 320 321 322 323 324 324 325 326 328 328 329 329 330 331 330 331 330 328 328 328 328 328 326 323 321 320 319 319 315 310 308 307 307 307 308 310 311 312 315 318 318 317 315 315 314 313 314 315 318 320 321 322 321 319 318 317 316 314 313 311 311 310 310 310 310 310 310 310 311
315 312 312 312 314 314 315 318 319 319 319 320 319 319 318 319 321 322 323 323 324 326 327 327 328 328 329 330 330 330 331 330 328 327 326 325 323 321 320 318 319 318 315 312 308 307 307 307 307 307 307 308 312 316 319 319 319 318 317 317 316 314 314 312 312 313 314 314 314 314 314 313 313 312 312 311 311 310 310 310 310 310 310 310 310
314 312 312 312 314 314 316 318 319 318 319 320 319 319 319 321 322 323 324 324 325 327 328 328 328 328 329 329 329 330 329 327 324 323 322 319 315 313 314 316 316 313 309 308 307 307 307 307 308 308 310 314 318 321 321 320 320 319 319 319 317 315 313 312 311 310 311 311 311 311 311 311 311 311 311 311 311 311 311 311 311 311 310 310 310
314 312 312 313 314 314 315 317 319 319 319 320 319 319 320 322 323 324 325 325 327 328 329 329 328 328 328 328 328 328 325 322 320 320 319 315 311 311 313 313 311 309 308 308 307 307 308 309 311 314 318 321 323 324 323 323 322 322 322 321 318 317 316 315 312 311 311 311 311 311 311 311 311 311 311 311 311 311 311 311 311 311 310 310 310
315 312 312 313 314 314 315 317 318 318 319 320 320 319 321 323 324 326 327 327 327 328 329 329 328 327 327 327 327 325 322 320 320 319 315 310 310 311 311 310 308 309 309 308 307 308 309 312 316 320 323 325 326 326 326 325 324 324 325 324 322 321 322 320 316 313 313 314 314 313 312 313 312 311 311 311 311 311 311 311 311 310 311 310 311
314 312 313 313 314 315 314 316 318 318 319 320 320 320 323 324 325 327 327 328 328 329 329 328 327 327 327 326 326 323 321 320 318 315 312 309 310 310 310 308 308 309 309 309 308 308 311 316 320 323 326 327 327 328 328 328 326 325 326 326 325 325 325 325 321 316 317 319 318 317 316 316 315 314 314 314 313 313 313 311 312 311 311 311 311
314 312 312 313 314 314 315 315 317 318 319 320 320 321 324 324 326 327 328 329 329 329 329 328 327 327 327 327 326 323 320 319 315 312 310 309 310 310 309 309 309 310 310 310 308 309 313 318 323 326 327 327 327 328 329 328 327 325 326 327 327 327 328 328 324 320 321 324 322 320 318 317 317 316 317 316 316 316 316 315 314 314 313 312 312
313 312 312 313 314 314 315 315 316 318 319 320 321 322 324 325 327 328 328 329 329 329 328 327 327 328 328 327 326 323 320 317 314 311 309 309 310 310 309 309 309 310 310 310 310 310 314 320 324 327 327 327 328 328 328 328 326 325 325 326 327 328 328 328 327 324 325 326 325 323 321 320 319 319 318 317 318 317 317 317 317 317 316 316 315
313 312 313 313 314 314 314 315 317 318 319 320 321 323 324 326 327 328 328 329 329 329 328 327 328 328 328 327 324 321 318 315 312 310 309 309 310 309 309 309 310 311 311 311 311 310 315 321 325 327 327 328 328 329 329 328 327 325 325 326 327 328 328 327 328 327 326 327 327 326 326 326 324 324 324 321 318 319 318 318 318 318 318 318 318
318 313 313 313 314 314 315 316 317 318 319 320 322 324 326 326 327 327 328 329 329 328 328 327 328 328 327 325 322 318 316 313 311 309 309 309 310 310 309 309 310 311 311 312 312 311 314 320 324 326 327 328 329 329 329 328 328 326 325 325 327 328 328 326 326 327 328 328 328 328 328 329 328 329 329 326 322 320 319 319 320 319 319 319 319
323 318 314 313 314 314 315 316 317 318 318 320 323 325 327 327 327 327 328 329 329 329 328 327 327 326 324 322 318 315 313 311 310 310 309 310 310 310 309 310 310 311 312 312 312 311 312 318 323 325 327 329 329 329 330 330 329 328 325 325 326 327 327 327 327 327 329 330 329 329 329 330 330 330 330 330 328 325 322 321 321 321 321 320 320
325 322 316 313 314 314 315 316 317 318 318 321 323 327 328 327 327 327 329 330 330 329 328 326 325 323 321 317 314 311 310 309 309 310 310 310 310 310 310 310 310 311 312 312 312 312 312 315 321 325 327 329 329 330 331 330 330 329 328 327 328 327 327 327 327 328 329 330 329 329 329 330 331 330 330 331 331 330 328 325 323 322 321 321 322
325 321 317 314 314 314 315 316 318 318 319 321 324 327 328 327 327 328 329 330 330 329 327 325 322 319 316 312 310 309 309 309 309 310 310 310 310 310 310 310 311 311 311 312 311 312 312 314 319 324 327 328 329 330 331 331 330 330 330 331 331 330 329 327 327 328 329 329 329 330 329 330 331 330 331 331 331 331 331 329 327 324 323 322 322
324 319 317 315 314 314 315 316 318 319 319 321 325 327 328 328 328 329 330 331 330 328 326 324 320 316 312 309 309 308 309 309 310 310 311 311 311 310 310 310 310 311 311 311 312 312 312 314 317 322 326 327 329 330 330 331 331 330 330 332 332 331 330 329 329 327 328 330 330 330 330 330 331 331 331 331 332 331 331 331 330 329 327 325 323
322 318 316 314 314 315 316 316 318 318 319 322 325 328 329 330 329 330 331 330 329 328 325 322 318 315 311 309 308 308 309 309 310 311 311 312 311 311 311 311 310 311 311 311 312 312 313 314 315 319 322 325 326 327 328 328 330 331 331 332 332 331 330 330 329 327 327 330 331 331 330 331 331 331 331 331 332 331 331 331 331 331 331 329 327
320 316 314 314 314 315 316 317 317 318 319 322 325 328 330 330 330 331 331 330 329 327 323 320 318 315 311 308 308 308 308 309 310 311 312 312 312 312 312 311 311 311 312 312 313 313 314 314 315 316 318 320 321 322 321 322 326 330 331 332 331 330 328 327 326 325 326 329 330 330 330 331 331 331 331 331 331 331 331 331 331 331 331 331 330
319 316 314 314 314 315 316 316 318 318 319 322 325 327 330 330 331 331 330 330 329 326 322 319 317 313 310 308 308 308 308 309 309 310 311 312 312 312 313 312 312 312 312 313 314 314 315 315 316 316 317 317 317 318 318 319 322 327 330 330 329 327 327 327 326 326 327 328 329 330 330 331 331 331 331 331 331 331 331 331 332 331 331 332 331
320 318 316 315 314 315 316 316 318 318 319 322 324 327 329 330 331 330 329 329 328 324 321 318 314 312 310 308 308 308 309 309 309 310 310 310 310 311 312 313 313 313 314 315 315 316 316 317 318 318 318 318 318 318 318 318 319 322 325 325 327 328 328 328 328 327 328 328 329 330 330 330 330 330 330 331 331 331 331 331 331 332 332 332 332
326 320 315 314 314 315 316 316 317 318 320 322 324 327 329 330 331 329 329 329 326 322 319 315 312 311 311 309 309 308 309 309 309 310 310 310 310 310 311 312 313 314 315 316 317 318 318 319 318 318 318 317 317 317 317 317 317 319 320 321 327 329 328 329 329 329 328 328 328 329 329 329 330 330 330 331 331 331 331 331 332 332 332 332 332
331 321 314 312 314 316 316 316 317 318 320 321 324 327 328 330 331 329 329 328 325 320 315 313 312 314 316 315 313 310 310 309 309 310 310 310 310 310 309 310 311 312 314 316 317 317 316 316 315 315 316 317 317 317 316 316 315 316 317 321 325 326 327 329 330 330 330 329 329 329 330 330 331 331 331 331 331 331 331 332 332 332 333 333 333
334 324 315 312 314 316 316 316 317 318 319 321 324 327 328 329 329 329 329 328 323 317 314 314 316 319 322 322 319 315 313 311 310 310 310 311 312 313 312 312 313 312 311 312 313 316 318 318 318 319 321 322 323 324 322 321 320 319 319 322 324 325 327 328 330 330 330 330 330 330 331 331 332 332 331 331 331 331 332 332 332 333 333 333 333
332 324 316 312 313 316 316 316 317 318 319 320 323 327 327 327 327 328 328 327 323 316 314 318 322 325 326 326 323 319 316 314 313 314 314 316 318 319 319 321 322 321 317 316 317 322 327 327 326 326 327 328 328 328 328 328 327 326 326 326 327 328 329 329 330 330 330 330 330 331 331 331 332 332 332 332 331 332 332 332 333 332 332 333 333
331 323 316 311 312 315 316 315 316 317 318 319 322 325 324 324 326 327 327 326 322 318 316 320 326 328 327 326 324 320 319 319 319 320 321 323 325 326 327 329 331 331 330 329 329 329 331 331 331 330 330 330 330 330 331 331 331 330 330 330 330 330 330 331 331 331 331 331 331 332 332 332 332 332 332 332 332 332 332 332 332 332 332 332 333
335 329 321 313 312 314 315 315 316 316 316 317 320 321 320 322 325 326 326 325 323 319 318 322 327 329 327 324 322 321 320 322 322 323 326 329 330 332 332 333 334 335 335 334 333 333 332 332 331 331 331 331 331 331 331 331 331 331 331 331 330 330 331 331 331 331 332 332 332 332 333 333 333 333 333 333 333 332 333 332 332 332 332 332 332
339 336 324 314 312 313 313 315 315 315 315 316 318 319 318 320 323 324 324 324 323 320 320 324 327 327 326 323 320 320 322 324 325 326 328 331 332 332 333 334 334 334 334 334 333 332 332 331 331 330 330 330 330 330 330 330 330 330 330 330 329 329 329 329 330 331 331 331 332 332 332 333 332 333 333 333 333 333 333 332 332 332 332 332 332
341 336 325 316 314 312 313 314 314 314 314 315 317 318 320 321 322 324 323 324 323 321 322 326 328 328 328 324 319 320 324 328 329 330 331 330 330 331 332 333 334 333 333 333 333 332 331 330 329 329 329 329 329 329 329 329 329 328 328 328 328 328 328 329 329 330 330 330 330 330 331 332 332 333 333 333 333 333 333 333 332 332 333 333 332
340 336 328 320 315 312 312 313 313 313 314 315 316 320 323 324 324 325 325 324 324 323 324 328 331 332 330 325 320 320 327 330 331 332 331 330 331 331 332 333 333 332 332 333 332 331 330 329 328 328 328 329 330 329 329 328 328 327 327 327 327 327 327 328 329 329 329 329 329 330 331 331 332 332 332 332 333 333 333 332 332 333 333 333 332
339 338 333 324 316 313 312 312 312 314 315 316 319 323 325 325 326 326 327 327 325 325 327 331 333 333 330 324 320 322 328 331 332 332 331 331 332 332 332 332 332 332 332 332 331 329 328 328 327 328 328 329 329 329 329 328 327 326 325 326 326 326 327 328 328 328 328 328 329 329 330 330 330 331 331 331 332 332 332 332 332 333 332 332 332
340 340 336 325 317 315 314 313 312 314 317 319 322 325 326 328 329 328 329 328 326 328 330 332 332 331 329 323 321 325 329 331 333 332 332 332 332 332 332 332 333 333 333 332 330 328 327 328 328 329 329 330 330 329 329 328 326 326 326 327 327 327 327 327 328 328 328 328 328 328 329 329 329 329 330 331 331 331 331 331 331 332 331 331 331
341 340 336 326 320 319 317 315 313 315 320 322 322 326 328 329 330 330 330 328 328 329 330 330 330 330 328 324 322 326 329 331 332 333 333 332 332 332 333 333 333 333 333 332 330 329 329 329 330 330 330 329 328 327 326 326 327 328 328 329 329 329 328 328 328 328 328 328 328 328 329 329 329 329 330 330 330 331 331 331 331 331 331 332 331
342 339 335 329 325 323 321 319 316 317 321 322 322 325 329 330 332 332 330 328 329 330 329 329 329 328 327 326 325 326 329 332 332 333 333 332 332 333 333 333 333 333 333 332 330 330 330 330 330 330 330 328 326 325 325 326 327 328 329 329 329 329 329 329 329 329 328 328 329 329 330 330 329 329 329 329 330 330 330 330 331 331 331 331 331
341 336 332 329 327 326 325 324 321 319 320 320 320 324 329 331 332 331 330 330 331 330 330 329 328 328 329 328 327 328 331 332 333 334 333 331 332 332 332 332 332 333 333 332 331 330 330 329 329 329 327 325 324 324 324 324 324 324 326 327 328 328 328 329 329 328 329 329 330 331 330 329 329 329 329 329 330 330 330 330 330 330 330 330 330
339 331 329 330 330 331 329 328 326 324 322 320 320 323 329 332 333 331 331 332 332 331 330 328 328 329 331 330 329 331 332 333 333 333 331 330 331 331 332 332 332 332 332 332 331 331 330 328 328 327 324 322 322 322 321 320 320 320 321 323 325 327 328 328 329 329 330 331 331 331 330 329 329 329 329 330 330 330 330 330 330 330 330 329 329
336 329 330 333 335 334 331 329 329 327 325 322 321 323 329 332 333 332 333 333 331 331 330 328 329 331 332 331 331 333 333 333 333 331 331 331 331 331 332 332 332 332 331 331 331 329 328 327 326 324 322 320 320 319 318 317 317 317 319 320 321 325 326 327 329 329 330 331 331 330 329 329 329 329 330 330 330 330 330 330 330 330 330 330 329
334 330 333 336 337 335 333 332 331 330 329 324 322 324 329 333 334 334 333 332 331 332 331 329 331 332 332 331 333 335 334 333 332 331 332 333 332 332 333 333 333 333 332 331 330 328 327 325 324 323 321 319 318 317 316 316 315 316 318 318 318 322 324 326 328 330 330 331 330 329 329 329 329 329 330 330 330 330 330 330 330 330 329 329 329
336 333 335 338 338 336 335 335 334 333 331 327 326 328 331 334 335 334 334 333 333 333 332 332 332 333 332 333 334 335 334 333 332 332 333 333 333 333 334 334 334 333 332 331 330 328 326 324 322 321 319 317 316 316 315 315 315 315 316 316 316 318 320 324 328 330 330 330 329 328 328 329 329 329 329 329 329 329 329 330 330 330 329 329 329
339 337 338 339 338 337 337 336 335 334 332 331 332 333 334 335 335 335 334 334 334 333 333 333 332 332 333 334 335 335 334 333 332 333 333 333 333 333 333 333 333 332 331 330 329 328 326 323 321 318 317 316 315 315 315 315 314 314 314 314 314 315 317 322 327 330 330 329 328 325 324 325 327 326 325 326 326 326 325 326 327 328 328 328 328
340 339 340 340 339 339 338 337 335 333 333 334 334 334 335 335 335 334 334 334 334 333 333 332 331 332 334 335 335 335 334 333 333 333 332 332 333 333 333 333 333 332 331 330 328 327 325 323 319 316 315 315 315 315 314 314 313 313 313 314 314 315 317 321 326 329 329 328 326 323 320 322 325 322 320 320 320 320 319 319 320 322 324 326 326
340 340 340 340 340 339 339 337 335 334 334 335 335 335 335 335 335 335 335 334 334 333 332 331 331 333 335 335 335 334 333 333 333 332 331 331 332 332 332 332 332 331 330 330 329 328 325 321 317 315 315 315 315 314 313 313 313 313 313 314 314 314 317 320 321 322 323 322 322 320 318 319 319 317 315 314 313 313 313 313 314 315 318 320 323
340 340 340 341 340 339 339 338 336 335 335 336 336 336 336 336 336 335 334 334 333 332 331 331 333 335 335 334 334 334 333 333 332 332 332 332 332 332 332 331 330 330 330 329 328 326 322 318 316 315 315 314 314 313 313 313 313 313 312 313 314 315 317 316 313 316 320 319 317 316 315 314 312 310 309 308 308 308 308 308 309 310 313 315 317
340 340 340 341 340 340 340 338 336 335 335 336 337 337 336 336 335 335 334 333 332 332 331 333 335 335 335 334 333 333 333 333 332 333 333 332 332 331 331 329 328 328 327 327 324 321 318 316 316 315 314 313 313 312 312 312 311 311 310 310 312 313 314 311 309 314 316 313 311 310 308 307 305 303 303 302 303 303 303 304 304 305 307 309 311
340 340 340 340 340 340 339 338 336 335 335 335 337 337 335 335 334 334 333 333 333 333 334 334 335 335 335 334 333 333 333 333 333 333 333 332 332 330 330 328 327 326 325 322 318 317 316 316 315 313 312 312 312 311 311 310 309 308 307 308 309 310 310 309 309 310 308 305 305 304 303 301 300 300 300 300 301 300 300 300 300 301 302 303 305
339 339 339 339 340 340 339 337 336 335 335 336 336 336 335 334 333 332 332 333 334 335 335 335 335 334 334 334 333 332 332 332 331 331 331 331 331 330 328 326 325 325 322 318 316 316 316 315 313 312 312 311 311 310 308 307 306 305 305 306 307 307 307 307 307 306 303 302 302 301 301 300 300 300 300 300 300 300 299 299 299 299 300 300 300
338 338 338 339 339 339 338 337 336 335 335 335 336 335 334 333 332 331 332 334 335 335 335 334 334 333 333 333 333 331 330 331 331 331 331 331 330 328 326 324 322 321 319 317 317 316 314 313 312 311 311 310 308 306 305 304 303 303 303 304 304 304 305 305 304 302 300 301 301 301 301 300 300 300 300 300 300 300 299 299 299 299 299 300 300
337 337 338 338 338 337 337 336 335 335 335 335 334 333 333 332 332 332 333 335 335 335 334 333 333 333 333 333 332 331 331 331 331 331 331 329 327 325 322 319 319 319 318 317 315 314 312 312 311 310 309 307 304 303 302 302 301 301 301 302 301 302 302 301 300 300 299 300 300 301 301 301 300 300 300 300 300 300 300 300 300 300 300 300 301
336 337 337 337 337 336 336 335 335 335 335 334 333 333 332 332 333 334 334 334 335 334 334 333 333 333 332 332 332 331 331 331 332 331 329 326 323 321 319 318 318 317 316 314 313 312 311 310 309 308 305 303 302 301 301 301 300 300 300 300 300 300 300 300 300 300 300 300 300 300 300 301 301 300 300 300 300 301 300 301 301 301 301 301 301
335 336 337 336 335 336 335 335 334 334 334 334 333 333 332 332 333 334 334 334 334 334 333 333 332 333 332 332 331 330 331 331 331 329 326 323 320 318 318 317 316 315 313 312 311 310 310 308 307 305 302 301 301 301 300 300 300 300 300 300 300 299 300 300 300 300 300 300 300 300 301 301 300 300 300 300 300 301 300 301 301 301 301 301 301
Wind_Speed
26 23 21 20 20 20 20 21 20 19 18 18 17 16 15 14 13 14 14 14 13 13 13 12 12 11 11 11 11 11 10 10 10 10 10 10 10 8 8 7 7 6 6 6 5 6 5 5 6 6 7 7 7 6 5 4 4 5 7 9 9 9 12 16 16 18 17 15 12 12 11 10 12 12 11 10 9 8 8 9 9 9 10 10 10
29 25 22 21 20 20 20 21 21 20 19 18 18 17 16 14 13 13 13 13 13 13 12 12 12 11 11 11 11 10 10 10 10 9 10 10 9 7 6 6 5 5 6 5 5 5 4 4 6 7 7 6 5 4 4 4 5 6 9 11 12 12 15 17 19 19 17 14 12 11 11 11 12 11 10 9 8 7 8 9 9 9 9 10 10
29 26 23 22 20 20 20 22 22 21 20 19 19 18 17 15 14 13 13 13 13 13 12 12 12 11 11 11 10 10 10 9 9 9 9 8 8 6 5 4 4 4 5 5 5 4 3 4 6 7 8 7 6 4 4 5 6 9 11 13 14 15 17 18 19 18 16 14 12 11 11 11 11 10 9 9 8 8 8 9 9 9 9 10 9
29 27 24 22 21 21 21 22 22 21 21 20 19 18 18 16 15 13 13 13 13 13 12 12 12 12 11 11 10 10 9 9 8 8 7 7 7 6 5 4 4 5 6 6 5 4 5 6 7 8 8 8 7 6 6 7 9 11 13 15 16 17 17 17 17 16 14 13 12 11 10 9 9 9 9 8 8 8 8 9 8 8 8 9 9
29 28 25 24 23 22 21 22 22 22 21 20 19 18 18 17 16 14 14 13 13 13 13 13 12 12 12 11 10 9 9 8 7 7 7 7 6 6 5 5 5 7 8 8 6 5 6 7 8 8 9 9 9 8 9 10 12 14 15 17 18 19 18 17 16 14 13 12 11 11 10 9 8 8 8 8 8 8 8 8 8 7 8 8 8
29 28 26 24 24 23 22 23 22 22 22 21 20 19 18 18 16 15 15 14 14 14 13 13 13 12 12 11 10 9 8 7 7 7 8 7 6 5 5 6 7 9 10 9 7 7 8 9 10 10 11 12 12 11 12 14 15 16 17 18 19 20 19 19 17 15 13 12 11 11 11 10 9 8 8 9 8 8 8 8 7 7 7 7 7
28 28 26 25 24 24 23 23 23 23 22 22 21 19 18 18 17 16 16 15 14 14 14 13 13 12 12 11 10 9 8 7 8 8 7 7 6 7 7 7 9 11 11 10 8 9 9 11 13 14 15 14 14 14 14 15 16 16 17 18 19 20 20 20 19 17 16 14 14 13 13 13 11 10 11 11 10 9 8 8 7 7 7 7 7
27 27 26 25 24 24 24 23 23 23 23 22 21 20 19 18 17 17 16 16 15 14 14 13 13 12 12 11 10 10 9 9 9 8 7 7 8 9 10 10 12 14 12 11 10 10 11 13 15 16 16 15 15 14 14 14 15 16 17 18 18 19 20 20 20 19 18 18 17 16 16 15 14 13 13 12 11 11 10 9 8 8 8 8 8
27 27 25 25 24 24 24 24 24 24 24 23 22 21 19 18 17 17 17 16 15 14 14 13 12 12 11 11 11 11 10 10 9 8 8 9 10 10 11 12 14 14 13 11 10 11 12 14 15 16 16 15 14 13 12 13 14 15 16 17 17 18 18 18 19 19 19 19 18 17 16 16 15 14 13 13 12 11 11 10 10 10 9 9 9
27 26 25 25 24 24 24 24 24 24 24 24 23 21 19 18 18 18 17 16 15 15 14 13 12 12 12 12 12 11 10 9 8 8 9 10 10 11 12 13 14 14 13 12 11 12 13 14 15 15 15 14 12 11 11 11 13 14 15 15 15 16 16 17 17 18 18 18 18 17 16 16 15 14 14 13 12 11 11 11 10 11 10 10 10
26 25 25 24 24 24 24 24 25 25 25 24 24 21 20 19 18 18 17 16 15 15 14 13 12 12 12 12 11 10 9 9 8 9 9 10 11 11 12 13 14 13 13 12 11 12 13 14 14 14 13 12 11 10 10 10 10 12 13 13 13 14 14 15 15 16 17 17 17 17 16 16 16 15 15 14 13 12 12 11 11 11 11 11 11
26 25 24 23 24 24 24 25 25 26 25 25 24 22 20 19 19 18 17 16 15 15 14 13 13 12 12 11 10 9 9 8 8 8 9 10 11 11 12 13 13 13 12 12 11 12 13 14 13 13 12 11 10 9 8 8 8 10 11 11 11 11 12 13 14 14 15 16 16 16 16 17 16 16 16 15 15 14 13 13 12 12 11 11 11
25 24 24 23 23 24 24 25 25 26 26 25 24 22 20 19 19 18 17 16 15 14 13 13 12 12 11 10 10 9 8 8 8 8 9 10 10 11 12 12 12 12 11 11 11 12 13 13 13 12 12 11 9 8 7 6 6 7 9 9 9 10 10 11 12 12 13 13 14 15 15 16 16 17 17 16 16 15 14 13 13 12 11 11 11
24 24 23 23 23 24 24 25 25 26 26 25 24 22 20 20 19 18 17 16 14 13 13 12 12 12 11 10 9 9 8 8 8 8 9 10 10 11 11 11 11 11 11 11 11 11 12 12 12 11 11 9 8 7 6 5 4 5 6 7 8 9 9 10 10 10 11 11 12 13 13 15 15 16 17 17 16 16 15 14 14 14 13 13 12
21 23 23 23 24 24 24 24 25 25 26 26 24 23 21 19 18 17 16 15 14 13 12 12 12 12 11 10 9 8 8 8 8 8 9 9 10 10 11 11 10 10 10 10 10 11 11 12 11 11 10 8 8 6 5 3 2 3 5 6 7 8 8 8 9 9 9 9 10 11 12 13 15 15 16 17 17 17 16 16 16 15 15 15 14
21 22 23 24 24 24 25 25 25 25 26 26 24 23 20 19 18 17 16 15 14 13 13 12 12 11 10 9 8 8 8 8 8 8 8 8 9 9 10 10 10 9 9 9 9 10 10 11 10 10 9 8 7 6 4 2 1 2 3 6 7 7 7 8 8 8 8 8 9 10 10 12 14 15 15 16 17 17 17 17 17 17 17 17 16
22 22 23 24 24 25 26 26 26 26 26 26 25 23 20 19 18 17 16 15 14 13 13 12 11 10 9 9 9 9 9 9 8 8 7 8 8 9 9 9 9 9 8 8 8 9 9 9 10 9 8 8 7 5 5 3 1 0 2 4 6 7 7 7 8 8 8 8 9 9 9 10 12 14 14 15 16 17 17 18 17 17 17 17 17
23 23 23 23 25 25 26 26 27 26 26 26 25 22 19 19 18 17 16 15 14 13 12 11 10 9 10 10 10 10 9 9 8 8 7 7 7 8 8 8 8 8 8 7 7 7 7 8 8 9 8 7 6 5 5 4 3 3 2 1 4 6 7 8 8 8 9 9 9 9 9 9 11 12 13 13 14 15 17 17 18 18 18 18 17
24 23 23 24 25 25 26 26 27 27 27 27 25 22 19 18 17 17 16 15 14 13 12 11 10 10 10 11 11 10 9 8 8 7 7 7 7 7 8 8 7 7 7 7 6 6 6 6 6 7 7 7 6 6 6 5 5 5 5 3 3 5 7 9 9 9 9 9 9 9 9 9 10 11 11 12 13 15 16 17 17 18 18 18 18
23 23 24 24 24 25 26 26 27 28 28 27 25 22 19 18 17 17 17 16 14 13 12 11 10 10 11 11 11 10 9 8 8 7 7 6 6 6 7 7 7 6 6 6 6 5 5 5 5 5 5 5 6 6 6 7 7 7 6 5 5 6 7 9 10 10 9 8 8 9 9 10 11 11 12 12 13 14 16 17 17 18 19 19 18
24 25 24 24 25 26 27 27 28 28 28 26 24 22 20 18 18 18 17 16 15 14 13 11 10 11 11 12 12 11 10 9 9 8 7 7 6 6 6 7 7 6 6 5 5 4 4 4 4 4 5 6 6 6 6 7 7 8 8 6 6 7 7 8 8 8 7 7 8 8 9 10 11 12 13 13 13 15 16 17 18 18 19 19 19
25 25 25 26 27 27 28 28 29 28 27 26 25 23 20 20 19 19 18 16 15 14 12 11 11 11 12 12 12 12 11 10 9 9 8 7 6 5 6 6 6 6 5 4 3 3 3 3 3 4 5 6 6 6 7 7 8 8 9 8 6 6 7 7 7 7 7 7 7 7 8 9 10 12 12 13 13 14 16 17 18 18 18 19 19
26 26 26 26 27 27 28 28 29 29 28 27 25 22 21 21 20 20 19 17 15 14 13 13 13 13 12 12 12 12 11 10 10 9 8 8 7 6 6 6 6 5 4 3 2 2 3 3 4 4 5 5 6 6 7 8 8 9 10 10 8 7 7 7 7 8 8 7 7 7 8 9 10 11 12 13 13 14 16 17 18 18 18 18 19
26 26 27 26 26 26 27 28 28 28 28 27 25 22 21 21 21 20 18 17 15 14 14 15 15 14 13 12 11 11 11 10 9 9 8 8 8 7 7 6 5 5 4 3 3 2 3 3 4 4 4 5 5 5 6 7 9 10 11 13 12 10 9 8 8 8 8 8 8 8 9 10 10 11 12 14 14 15 16 17 18 19 19 18 19
25 27 28 28 27 27 28 28 28 28 28 27 25 23 22 22 21 20 18 16 15 15 16 16 15 14 13 12 11 11 10 10 10 9 8 8 7 7 7 6 5 5 4 3 2 1 1 2 3 3 3 4 5 5 6 6 7 9 10 12 12 11 10 9 9 9 10 10 10 9 10 10 11 11 12 13 14 15 16 18 19 18 19 19 20
26 27 28 29 29 29 29 29 28 28 28 26 25 24 22 22 22 20 18 16 15 16 17 17 16 14 13 12 11 11 11 11 10 10 9 8 7 7 7 7 6 5 4 3 2 2 1 2 3 3 3 4 5 6 7 7 8 8 9 10 11 11 10 10 10 11 12 12 12 12 12 13 13 12 11 12 13 15 17 19 18 18 19 18 19
27 27 27 28 29 30 30 29 29 29 28 26 24 23 22 22 22 20 18 17 16 16 16 16 15 14 12 11 11 12 12 12 11 11 10 9 8 7 7 7 6 5 3 2 2 2 2 3 4 4 4 5 6 7 8 8 9 9 10 11 12 12 12 12 12 12 13 13 14 14 15 15 15 14 14 13 13 15 17 19 19 19 20 19 19
26 26 27 29 29 29 28 28 28 28 26 25 24 22 21 22 22 20 19 17 16 15 16 16 15 13 12 12 12 12 12 12 11 10 9 9 9 8 7 6 5 3 2 0 1 2 3 3 4 4 5 5 6 7 7 8 9 10 11 12 12 13 14 14 15 15 15 16 17 17 16 16 16 15 15 15 14 15 17 20 21 20 20 20 20
26 26 27 29 28 26 25 26 27 25 24 23 23 21 21 22 22 21 20 18 16 14 15 15 13 11 10 10 12 12 11 10 9 9 8 8 8 8 7 5 4 2 1 1 2 3 4 4 4 4 5 6 6 7 8 9 10 11 12 12 13 13 14 15 16 17 17 18 18 18 18 17 17 16 15 15 14 15 16 20 22 21 20 20 20
27 26 27 28 26 25 24 24 24 23 22 23 23 22 22 23 22 21 20 18 15 14 14 13 10 8 8 8 11 11 11 9 8 8 7 7 7 6 6 5 4 2 1 1 3 4 4 5 5 6 6 7 8 9 9 10 10 11 12 13 13 14 14 15 15 16 17 17 18 18 18 17 17 17 16 16 15 15 16 20 21 21 21 19 19
28 27 27 26 25 25 24 23 23 22 23 24 24 24 23 22 21 20 19 17 15 14 12 11 8 7 6 7 9 10 9 8 6 6 5 5 4 4 5 4 4 2 1 2 3 4 5 6 7 7 8 9 9 10 11 11 12 12 13 13 13 14 14 15 16 16 16 17 17 17 17 16 16 16 16 15 15 16 17 19 19 19 19 17 16
29 27 25 24 24 24 23 23 24 24 25 25 24 24 23 21 20 19 18 17 16 14 12 9 8 7 6 6 8 8 7 5 4 3 3 2 3 3 3 3 2 1 1 3 4 5 6 7 8 9 9 9 10 11 12 12 13 14 14 15 14 14 14 14 15 16 16 17 17 17 16 16 16 15 14 14 13 15 16 16 16 16 16 16 14
28 25 23 24 24 24 24 24 25 25 26 25 23 23 22 21 20 19 18 17 16 14 12 10 9 8 6 6 6 6 5 3 2 2 3 2 1 1 1 1 1 1 2 4 5 6 7 8 9 10 10 10 11 12 13 14 15 15 14 14 14 13 13 13 14 15 15 15 15 15 15 15 15 14 12 11 11 12 13 13 14 14 15 15 14
26 24 24 25 25 24 24 25 25 26 26 24 22 22 22 21 20 19 18 17 16 14 13 11 9 7 5 4 4 4 3 3 3 3 4 3 2 1 1 0 1 2 3 4 6 7 8 9 10 11 11 11 13 14 14 14 13 13 12 12 12 12 12 12 12 12 13 13 13 13 13 13 13 12 11 11 10 10 11 11 12 12 13 14 15
24 23 24 26 26 26 26 26 26 27 27 24 22 22 22 21 20 19 19 18 17 15 13 11 8 6 4 3 3 4 4 4 4 4 4 4 3 2 2 2 1 2 3 5 7 8 10 11 11 11 12 13 14 14 13 13 12 12 12 12 12 11 11 11 11 11 11 11 11 10 10 10 11 11 11 11 10 10 10 10 10 10 11 12 13
23 22 24 27 27 27 27 27 27 27 26 24 23 22 22 21 21 20 20 18 16 15 12 9 8 5 3 2 3 5 5 5 5 5 5 5 4 3 3 2 2 2 3 5 8 9 11 12 12 12 13 14 14 13 12 12 12 12 12 12 12 12 11 11 11 11 10 9 9 8 8 10 11 11 11 11 10 9 10 10 10 10 10 11 12
21 22 26 27 27 27 28 28 27 26 24 24 24 23 23 22 21 21 20 18 16 13 11 9 8 5 3 3 4 6 6 6 5 5 6 6 5 4 4 3 3 4 4 6 7 10 11 12 12 13 14 14 14 13 12 12 11 11 11 12 12 12 12 12 11 10 8 8 7 8 9 11 11 10 10 10 10 10 10 10 10 10 10 11 11
22 25 27 27 26 27 28 27 26 25 24 25 25 24 23 22 22 21 19 17 15 13 11 10 8 5 4 4 6 7 7 7 6 6 5 5 5 5 4 4 5 5 6 6 7 9 10 11 12 13 14 15 15 14 13 11 11 11 11 12 12 11 12 11 11 9 8 8 7 9 11 11 11 11 11 11 11 11 12 12 12 12 12 12 12
25 27 28 27 27 27 27 26 26 25 25 26 25 24 24 24 23 21 18 16 14 12 10 9 7 6 5 6 7 8 7 7 7 6 5 4 4 5 5 6 6 7 7 7 8 8 9 10 12 14 15 15 14 14 14 13 13 12 11 12 12 11 11 11 10 9 8 8 8 9 10 10 10 11 12 12 12 13 14 14 14 14 14 14 13
27 29 30 29 28 29 28 26 26 26 26 26 25 25 25 25 23 20 17 15 12 11 9 8 7 6 6 7 8 9 7 7 7 7 5 4 5 5 6 7 8 8 8 8 8 9 9 11 12 14 14 14 14 14 15 15 14 12 10 11 12 11 10 10 10 10 9 9 9 10 11 10 10 11 12 12 13 14 15 16 16 16 16 15 15
29 30 30 30 29 29 28 27 27 26 25 26 26 26 26 24 23 20 16 14 12 11 9 8 7 7 7 7 9 8 7 7 8 6 5 5 5 6 6 7 8 9 9 9 9 9 10 11 12 13 12 12 13 14 15 15 16 14 11 10 12 11 10 10 10 10 10 11 11 13 14 13 11 12 14 14 15 16 17 18 18 18 17 17 16
30 30 30 30 30 30 29 28 27 26 26 27 27 26 25 23 21 18 15 14 12 10 9 8 8 8 8 8 8 8 7 7 7 6 5 5 6 7 7 8 9 10 10 10 10 10 11 12 12 12 12 13 14 15 15 16 16 16 15 13 11 10 10 10 9 10 13 14 15 16 16 15 14 15 18 18 18 19 20 20 20 20 19 18 17
30 30 30 30 31 31 30 29 28 27 26 27 26 24 22 20 19 16 14 13 12 10 9 9 8 8 9 8 7 6 7 6 5 6 5 6 6 7 8 8 10 11 11 11 11 11 12 11 11 11 12 14 15 16 16 16 16 16 16 15 13 11 7 6 7 10 14 16 17 16 15 15 16 18 20 21 21 20 20 20 21 21 19 18 18
31 30 30 31 31 32 32 31 29 28 26 25 25 23 21 20 18 16 14 12 11 10 10 9 9 9 9 8 6 5 5 5 5 5 5 5 6 7 8 9 11 12 13 13 12 12 11 10 10 11 13 13 14 15 16 16 16 16 15 14 13 11 5 6 11 10 9 12 13 14 15 16 18 20 20 20 20 20 19 19 20 20 19 19 18
31 31 31 32 32 32 32 31 30 28 26 24 24 22 20 20 19 16 14 12 11 11 11 10 9 9 9 7 6 5 4 4 4 5 5 6 7 9 10 11 12 12 13 12 11 10 9 9 10 12 12 12 12 14 15 15 15 15 14 12 9 7 8 15 17 10 8 12 15 16 17 18 19 18 18 17 17 18 18 17 18 19 18 18 19
30 31 31 32 33 32 32 31 30 28 25 23 22 21 20 18 17 15 14 13 12 12 11 10 10 9 8 8 8 7 6 6 6 6 7 7 9 11 11 11 12 13 12 11 9 9 9 10 11 11 11 11 12 12 13 13 14 13 12 11 9 8 12 17 16 13 13 14 15 17 18 18 19 18 17 17 17 17 17 17 17 18 18 18 19
30 31 31 33 33 33 32 30 29 27 23 22 21 22 20 17 16 16 14 14 14 13 11 11 11 10 9 9 9 9 9 9 8 7 8 9 12 12 11 11 11 11 10 9 8 9 9 10 10 10 11 11 11 11 11 11 12 12 12 12 11 11 13 15 15 18 19 17 15 15 16 18 19 19 19 20 20 20 19 17 17 18 19 19 19
30 31 32 33 33 32 29 27 27 24 21 21 22 20 18 16 17 16 14 15 16 14 12 12 12 11 11 11 10 9 8 8 8 8 10 12 12 11 9 9 10 10 9 8 8 9 9 9 9 10 11 11 10 10 10 10 10 11 11 11 11 12 12 13 13 15 18 20 20 18 18 19 17 17 19 19 20 20 20 19 20 21 21 22 21
31 32 33 32 31 28 25 24 24 22 21 22 21 19 17 16 16 16 15 16 16 14 13 13 13 13 12 11 10 9 8 8 9 10 11 12 10 8 7 8 8 8 7 8 8 8 8 9 9 10 10 10 10 10 10 11 11 11 11 11 11 11 11 10 11 13 17 20 23 25 26 25 21 19 17 15 16 16 17 20 21 22 22 23 23
32 33 32 31 28 25 24 25 23 22 22 22 19 18 18 16 16 16 17 17 16 15 15 15 15 14 13 11 10 10 9 9 10 11 11 9 7 6 6 6 6 6 6 6 7 7 8 8 9 9 10 10 11 12 12 12 12 12 11 11 12 12 12 13 14 17 19 20 23 27 29 29 29 27 23 21 19 17 19 20 20 21 23 24 25
31 31 30 28 25 24 24 25 24 22 23 21 18 17 18 17 17 17 16 16 16 16 15 15 15 14 13 12 11 11 9 9 11 11 9 6 5 5 5 5 5 5 5 6 6 7 7 7 8 9 10 10 12 13 13 13 13 12 13 14 15 16 16 17 19 20 21 22 24 25 26 27 29 28 27 27 26 25 27 26 25 26 26 27 28
Wind_Direction
171 165 167 164 164 166 166 158 154 156 153 153 149 148 149 150 150 145 143 141 140 137 135 133 132 131 129 127 125 123 120 118 115 112 109 106 106 104 103 98 93 81 66 69 93 116 126 138 148 148 142 132 119 109 96 79 56 55 69 73 77 94 112 115 122 125 120 119 116 108 102 98 99 103 103 101 98 91 83 79 78 75 75 75 77
164 163 167 164 166 167 167 159 156 157 153 154 151 151 152 153 154 150 147 143 143 141 138 136 135 135 133 130 127 123 120 118 115 112 108 106 104 100 100 95 87 70 57 69 96 113 117 130 150 160 161 156 138 115 93 76 63 76 84 80 83 98 110 113 117 119 116 117 116 111 109 106 105 108 109 108 104 93 86 82 79 76 75 75 75
161 160 165 165 166 168 168 160 158 157 155 155 153 154 154 156 157 155 151 148 146 144 142 139 138 138 135 132 128 124 121 117 114 110 107 107 106 103 100 93 78 60 59 80 100 108 104 109 130 151 162 163 151 134 103 85 84 94 92 85 89 97 105 109 112 113 112 115 114 111 108 104 104 105 104 103 101 95 91 86 82 78 76 75 73
162 159 163 166 166 168 168 162 160 158 156 156 156 157 157 158 160 160 156 152 150 148 146 142 141 139 136 133 129 125 121 117 112 106 105 106 106 107 101 89 71 65 83 96 102 102 98 101 114 134 148 152 144 131 109 97 98 98 93 89 90 94 99 104 107 106 106 109 109 107 103 98 98 97 98 98 95 91 89 85 82 80 76 74 72
162 159 163 166 166 166 167 165 162 160 158 158 159 160 160 160 162 164 160 157 155 152 148 145 144 140 137 133 130 125 122 116 107 99 100 100 100 99 92 82 72 80 98 102 100 96 95 100 106 119 129 131 127 121 109 101 99 96 93 92 91 92 94 96 98 97 96 98 98 96 91 86 83 86 92 94 92 89 86 84 80 77 75 71 69
163 161 165 166 166 165 166 166 164 162 160 160 161 163 163 162 164 165 162 160 158 154 151 148 146 142 139 134 131 127 122 113 102 99 97 93 88 86 84 82 85 93 101 102 98 95 94 98 102 111 118 120 119 114 105 100 98 95 91 90 90 91 91 91 91 91 92 90 88 83 78 72 66 66 71 74 79 83 83 82 81 75 72 69 65
165 163 166 167 165 163 166 167 166 164 163 163 163 166 166 164 165 165 163 162 160 157 154 151 147 144 140 136 132 128 121 111 104 100 92 83 78 82 86 92 100 102 101 100 97 95 97 102 107 111 115 115 113 108 102 99 95 91 88 87 87 86 86 86 86 86 86 82 78 73 69 65 62 58 56 57 59 63 64 67 71 66 62 61 57
167 165 167 167 165 163 166 168 168 167 165 165 166 168 168 167 166 165 164 163 162 159 157 153 150 146 142 138 134 129 122 113 106 97 85 81 83 88 93 99 104 103 101 100 98 99 103 109 112 114 114 113 110 106 103 99 94 90 87 84 82 81 80 79 79 78 76 72 67 64 61 58 57 53 49 48 47 48 49 52 54 49 47 46 44
168 168 169 168 166 165 167 169 170 169 168 167 168 170 169 169 167 166 165 164 163 161 159 156 152 148 144 140 135 130 123 115 106 94 87 87 91 95 99 104 105 105 104 103 104 106 112 115 115 115 114 112 110 108 103 97 93 90 86 82 79 77 74 72 73 73 70 66 61 58 56 54 52 50 47 43 41 42 42 44 43 36 34 33 31
170 170 171 169 168 168 168 169 170 171 171 169 170 172 172 170 168 167 166 165 164 162 160 156 152 149 145 141 136 130 123 114 103 95 92 93 97 101 104 107 108 108 106 106 109 115 121 121 119 118 116 114 112 107 99 93 91 89 84 80 77 74 71 67 68 71 68 62 58 55 53 51 49 47 45 40 37 35 34 36 34 28 25 22 20
170 172 172 172 171 171 170 170 171 173 173 172 172 174 175 172 170 169 168 167 165 164 160 157 153 149 147 142 137 130 122 112 102 97 96 99 103 107 110 112 111 109 108 109 113 122 129 130 126 123 121 118 113 106 97 90 86 86 85 80 77 73 68 64 65 69 66 59 55 53 51 49 46 44 42 38 36 31 28 27 24 22 18 13 11
171 173 173 174 174 173 172 172 173 175 175 174 174 176 177 174 171 171 169 169 167 166 161 158 155 151 148 142 137 130 122 112 106 103 103 108 110 113 116 117 115 112 112 111 116 126 135 136 133 129 127 123 115 108 97 85 76 78 82 80 75 70 66 64 66 67 62 58 54 52 51 48 45 42 39 35 34 31 28 24 20 19 16 10 6
171 173 175 177 177 176 175 175 175 176 177 176 177 178 178 175 173 172 171 170 169 166 162 157 155 152 149 144 139 132 125 117 112 111 111 115 117 120 121 121 119 116 115 113 116 129 140 141 138 135 132 129 122 113 101 83 67 64 70 72 70 66 64 65 67 64 58 56 55 52 48 43 41 38 35 32 30 28 26 24 21 18 15 10 6
173 174 178 180 179 178 178 178 178 178 177 177 179 180 179 177 174 173 172 171 169 165 161 157 154 152 151 147 142 134 128 122 119 117 117 119 123 125 126 126 124 120 118 114 114 126 143 147 144 141 138 135 130 122 111 92 66 48 48 55 60 61 61 60 59 55 52 51 49 48 43 38 34 32 31 30 27 23 22 21 19 16 14 12 8
178 179 181 182 182 180 180 180 181 179 178 179 180 181 181 178 175 174 172 170 167 164 160 158 157 156 155 150 142 137 132 128 124 120 121 123 127 130 132 131 129 125 121 116 112 121 142 151 150 148 145 143 138 134 129 113 82 43 26 29 39 46 46 46 44 42 43 40 36 37 37 33 29 26 25 26 23 19 17 17 16 13 12 11 9
183 184 185 185 186 183 181 182 182 180 179 180 181 182 182 178 176 174 170 167 165 163 160 159 160 158 155 149 144 141 136 132 126 124 125 128 131 134 136 135 134 130 124 120 115 117 135 152 156 154 155 154 149 147 148 146 115 50 18 10 13 20 22 24 26 27 27 22 21 24 28 28 24 20 18 19 18 15 12 11 11 11 9 8 7
186 187 188 189 189 186 184 183 182 181 181 181 182 184 182 179 177 172 167 167 166 163 163 161 160 157 153 148 146 144 139 135 131 130 130 131 135 136 140 139 137 134 129 125 119 117 127 148 161 164 166 165 164 165 168 177 211 291 7 2 355 355 357 1 3 7 8 6 9 14 20 21 19 15 13 13 12 11 8 5 5 5 5 4 4
188 189 191 192 190 188 186 184 182 181 182 182 184 184 183 181 177 169 168 169 167 165 166 163 159 156 152 148 146 143 140 138 135 134 132 133 137 139 142 142 142 140 135 130 123 120 123 141 161 171 176 178 181 185 187 196 222 253 274 326 337 332 335 340 343 351 354 356 2 5 8 10 11 9 8 7 5 5 4 2 1 360 359 359 360
188 190 192 192 191 189 187 185 184 182 183 184 184 184 184 182 175 170 172 171 169 168 168 163 160 157 152 149 145 143 141 140 138 137 137 134 137 142 146 146 146 143 138 133 128 127 130 140 157 172 182 190 200 208 213 221 226 240 257 268 295 310 320 323 325 333 337 339 347 350 351 353 356 358 359 358 357 357 357 357 356 354 353 352 353
188 190 192 193 192 191 189 187 185 184 185 185 183 184 184 181 175 175 176 174 172 171 169 165 162 158 153 149 146 147 147 146 145 145 144 139 138 143 149 149 147 143 139 136 134 139 145 150 159 172 187 201 213 222 229 233 228 229 243 263 279 292 305 310 311 316 321 325 330 335 337 339 342 345 348 349 348 348 350 350 349 348 346 345 344
188 191 193 196 196 194 192 188 186 186 186 185 185 185 183 179 179 180 179 176 174 173 170 165 163 158 152 150 150 151 152 152 153 154 150 145 142 144 150 153 149 145 142 145 149 152 155 161 173 186 199 209 219 225 229 229 225 224 232 249 272 286 295 303 306 309 314 319 323 326 327 330 333 336 340 341 340 342 344 343 343 342 341 340 338
190 193 196 199 199 196 193 189 187 187 186 186 188 186 182 181 182 183 181 178 176 173 169 163 161 155 150 152 154 155 156 158 160 159 155 148 145 146 150 155 155 154 155 157 161 167 179 194 206 216 221 227 231 233 233 232 230 227 231 237 257 279 286 295 302 306 309 311 314 317 321 324 326 331 334 335 335 335 338 339 339 338 337 337 335
193 195 197 200 199 196 192 190 188 187 186 187 188 188 184 184 185 185 182 179 175 172 166 162 158 152 151 154 155 157 160 162 165 165 160 153 146 145 147 151 156 157 162 171 184 206 224 240 250 254 256 256 254 251 247 244 241 237 238 239 249 268 277 286 293 300 305 306 307 309 314 319 324 329 330 330 330 331 335 336 336 335 334 334 333
196 196 197 198 197 195 192 190 189 186 187 188 189 189 187 186 187 186 184 179 174 170 164 160 157 152 152 155 156 159 162 163 165 166 163 158 149 142 141 144 150 154 164 183 210 235 255 265 269 273 273 271 267 265 258 254 250 245 243 244 255 268 274 281 287 295 301 302 303 305 309 316 323 328 328 326 326 328 331 332 332 331 328 327 327
198 197 197 197 195 194 192 190 189 187 188 190 190 191 189 187 188 187 184 179 174 170 165 161 157 154 155 157 159 160 163 164 161 161 159 156 147 136 133 132 136 143 157 172 189 204 240 259 267 272 269 270 271 270 267 263 260 255 252 254 263 270 275 280 283 291 298 300 300 302 305 311 318 322 325 324 323 325 326 327 326 324 321 320 320
196 197 198 196 194 194 193 190 189 189 191 193 193 193 190 187 188 187 184 180 177 174 168 163 159 157 158 160 163 166 167 163 157 154 150 144 137 129 123 118 119 124 137 152 169 191 225 256 262 265 263 270 275 278 278 276 273 271 270 271 274 275 278 281 283 292 299 301 303 305 307 309 312 314 317 318 320 321 320 319 316 315 315 312 316
192 196 198 196 195 194 193 191 191 192 194 194 195 195 191 189 188 187 185 182 181 179 173 168 164 161 162 166 170 170 168 162 155 151 146 141 136 129 120 110 107 109 118 144 184 226 248 259 264 267 269 275 280 285 288 289 288 286 285 284 284 283 285 287 290 296 300 302 304 306 307 308 309 310 310 311 314 314 315 313 309 313 312 308 312
190 194 198 199 197 195 195 194 194 194 195 195 197 197 192 189 188 186 184 185 185 183 179 172 168 164 165 173 176 172 169 166 161 156 150 147 143 137 130 119 112 104 93 71 337 306 286 274 274 277 281 284 287 291 294 298 298 297 297 296 296 295 295 296 298 299 301 301 303 304 303 304 305 307 307 307 309 310 312 309 305 309 309 308 312
191 193 198 200 198 197 197 197 196 196 196 195 197 198 194 191 188 186 185 186 187 185 182 177 172 169 168 175 176 172 168 167 166 162 155 153 152 148 147 143 139 132 100 0 345 329 314 306 300 299 300 301 303 304 306 306 306 304 304 305 305 305 303 302 302 302 303 303 303 303 301 301 302 304 306 306 307 307 307 304 303 308 308 307 311
193 194 198 199 197 197 197 197 198 197 195 195 197 197 195 192 187 186 186 186 185 184 183 180 177 174 172 174 176 173 168 165 165 163 162 163 159 157 158 156 157 157 130 346 332 320 313 314 312 311 311 313 315 314 314 312 309 307 306 306 306 307 306 304 303 303 302 302 302 301 300 300 302 304 306 306 306 306 304 302 305 314 314 310 312
195 196 198 197 196 195 195 195 196 196 195 195 197 194 192 191 186 184 185 184 183 181 181 182 184 183 180 175 177 176 169 166 168 170 175 171 166 165 162 162 166 158 100 339 328 320 316 317 316 317 317 315 315 312 310 308 307 308 307 306 305 305 304 302 302 301 300 299 298 298 300 302 303 305 307 307 306 303 300 303 309 316 319 318 321
197 198 196 196 197 194 191 191 195 196 196 198 197 193 191 189 186 184 183 183 182 179 181 186 190 193 193 181 176 174 166 169 180 194 204 191 176 171 163 156 149 115 9 337 328 322 318 317 316 316 314 312 311 308 306 305 307 309 308 307 305 302 299 297 296 296 296 296 297 298 301 302 303 304 305 306 306 303 301 307 314 318 322 323 327
199 198 196 196 197 192 189 191 195 196 198 201 198 194 192 188 186 186 182 182 181 179 182 188 193 199 203 188 175 170 166 180 209 240 259 255 214 180 155 126 56 348 332 327 321 318 317 316 315 313 313 314 312 309 306 307 308 310 310 309 307 303 300 297 295 294 293 294 295 297 299 301 301 300 300 301 302 304 306 313 319 322 325 323 324
200 198 198 197 197 193 192 194 196 198 200 201 199 197 194 191 189 186 182 181 181 180 184 189 196 204 204 188 182 183 188 213 237 254 262 266 254 210 180 180 315 316 316 318 317 319 320 319 316 316 318 318 315 311 309 310 313 317 318 314 312 311 308 305 301 299 298 297 295 296 299 301 302 302 301 299 300 304 308 313 318 322 322 319 320
202 201 199 197 198 196 195 198 198 200 201 200 200 199 197 194 191 186 183 183 182 182 185 190 199 202 190 184 201 203 210 229 240 247 250 250 243 227 219 229 269 302 311 319 322 324 324 322 321 320 319 316 313 313 315 319 324 327 326 321 319 320 315 310 307 307 307 303 299 298 300 303 304 304 304 305 307 309 311 311 313 314 313 312 314
205 202 197 197 200 199 199 201 202 202 200 200 201 199 198 197 192 187 184 182 182 182 184 187 189 185 171 199 217 214 222 230 232 238 240 237 234 237 242 246 273 298 312 320 322 323 324 324 323 321 317 314 315 319 325 329 331 333 330 324 324 324 319 316 315 316 315 308 303 299 302 308 308 306 305 307 311 313 313 312 312 310 309 309 311
204 198 195 197 200 201 201 203 205 203 199 198 199 198 199 196 192 188 185 184 184 182 181 179 178 178 193 224 226 230 233 227 226 232 236 239 243 249 258 270 287 298 304 306 312 321 324 324 322 319 316 317 321 326 331 333 334 338 334 326 325 324 321 321 321 323 320 311 303 298 307 313 312 311 309 308 307 308 307 306 307 307 308 309 311
202 196 196 198 201 202 201 203 205 201 196 196 197 197 197 194 192 191 188 188 187 183 180 177 178 191 216 231 232 237 235 226 223 224 233 248 256 262 269 281 289 289 288 293 307 318 320 319 319 317 317 320 324 325 328 333 335 339 336 327 325 323 320 320 320 320 316 309 304 306 313 314 313 316 316 312 308 306 304 300 299 301 305 307 307
201 198 200 201 202 201 199 201 202 197 194 193 192 192 192 192 192 192 191 190 185 181 179 180 186 205 225 236 239 238 232 225 222 220 230 254 265 274 280 283 285 284 289 298 308 313 314 316 316 316 317 319 322 321 323 327 329 333 332 324 320 317 314 311 308 308 307 306 307 311 314 312 313 318 317 315 312 309 306 303 300 300 304 307 305
203 202 203 203 203 201 197 198 199 195 192 187 185 187 189 191 194 194 190 186 184 184 186 189 199 219 231 239 244 240 229 221 223 224 236 260 272 280 282 281 282 287 296 303 307 311 313 314 314 314 316 317 317 316 318 319 320 324 326 319 314 310 307 301 296 297 298 300 306 310 312 310 313 317 317 316 315 313 311 307 305 303 304 305 305
207 207 208 207 205 203 198 198 199 195 190 185 184 187 189 193 198 197 190 184 187 193 197 204 215 230 235 241 241 234 224 221 226 232 243 259 271 277 279 282 286 291 298 303 307 310 312 313 315 317 318 319 316 313 315 316 319 322 322 318 314 312 307 292 286 289 292 294 298 304 308 306 307 315 318 315 312 312 310 307 305 305 305 305 304
210 211 213 212 209 207 202 200 198 195 193 190 189 191 194 199 203 200 192 188 192 202 211 219 225 233 238 238 228 220 221 226 233 242 246 252 264 272 275 282 288 293 299 302 306 309 312 315 318 322 323 320 317 316 318 321 325 326 326 327 321 315 305 284 276 283 288 291 293 299 304 301 302 313 318 314 310 308 307 304 301 300 302 303 303
212 214 215 214 213 211 206 203 200 197 195 194 194 196 199 205 208 204 198 196 200 210 221 228 228 230 232 226 212 211 224 233 245 253 254 259 268 276 281 287 292 297 300 301 303 306 310 315 319 322 320 318 318 319 323 327 331 331 331 331 327 326 314 265 271 285 285 289 295 304 310 310 311 316 318 316 312 310 308 307 303 300 300 300 301
213 216 216 215 215 215 210 206 204 202 200 198 199 202 204 205 205 203 203 208 215 221 224 227 227 225 223 219 214 217 226 235 247 254 265 274 283 294 297 298 299 299 300 301 303 305 308 312 314 317 318 320 322 324 329 332 334 336 338 337 331 333 333 306 316 315 300 302 308 314 321 322 321 320 319 318 317 315 314 313 309 306 304 303 301
215 217 217 217 217 217 213 208 207 205 205 205 203 204 205 202 200 201 205 213 221 224 224 223 216 212 209 212 224 226 223 232 240 249 267 280 294 302 302 303 303 302 303 303 304 304 306 308 312 318 322 325 329 332 333 333 337 342 345 346 340 329 324 328 334 340 331 327 328 330 334 335 333 330 328 326 324 321 321 322 318 314 312 309 305
216 218 218 218 217 216 212 209 207 205 206 206 202 202 204 204 206 210 212 216 217 216 221 221 206 198 198 208 225 223 217 227 238 251 268 284 296 301 302 304 304 303 304 303 303 303 305 311 317 324 329 333 338 338 336 338 344 349 351 356 357 341 333 337 339 338 339 345 347 344 346 349 346 344 343 338 336 334 334 333 326 322 321 318 313
216 218 218 217 217 216 213 210 208 207 206 203 200 201 205 214 222 220 217 222 224 215 213 213 202 200 207 217 226 222 221 232 248 263 277 291 296 299 300 300 299 297 298 299 302 306 311 318 324 332 339 341 343 342 343 350 353 355 1 3 0 352 346 347 344 340 341 350 359 357 357 359 354 350 349 345 344 344 345 343 334 330 330 327 322
215 216 217 216 216 215 214 211 210 209 205 201 202 206 213 225 229 225 221 226 230 221 208 206 206 213 223 227 229 229 233 247 264 278 289 296 296 297 298 296 294 291 292 298 303 310 316 324 332 338 342 342 344 351 358 5 7 7 8 5 -0 359 357 354 350 347 343 344 355 1 3 10 11 -0 353 349 347 348 348 348 344 340 338 335 333
213 215 216 215 214 215 213 211 212 209 206 204 206 212 220 227 229 228 225 222 223 217 210 211 212 219 228 230 230 231 243 259 276 289 297 298 294 294 294 291 290 288 292 299 306 315 322 329 336 339 342 345 354 4 11 17 21 21 18 12 9 11 11 7 1 1 -0 355 356 359 359 6 17 17 14 7 360 357 355 351 348 345 343 342 341
212 214 215 215 214 214 211 211 212 209 209 209 209 216 222 225 228 231 228 221 216 211 210 213 214 218 224 227 228 233 248 267 285 295 296 292 286 281 282 285 288 290 296 302 310 319 325 333 337 340 348 356 7 15 18 23 28 29 28 26 27 28 25 22 17 14 14 7 1 1 0 3 9 15 20 23 23 20 12 5 359 355 354 353 351
212 212 215 217 213 210 210 212 211 210 213 211 210 221 226 224 227 230 229 224 219 213 213 215 215 218 221 225 232 243 260 279 291 294 287 278 270 266 273 283 288 292 298 306 315 322 329 337 341 350 1 9 19 24 24 28 31 32 34 34 34 34 30 27 25 21 18 12 7 5 3 4 9 12 13 16 20 20 16 13 11 7 4 1 358